Location: Hysolar-Haus
(48.7436°N, 9.0965°E)
Time: 06:22:16
(UTC+00:00)

Courier 1B - Visible Passes

Search period start: 20 November 2019 00:00
Search period end: 30 November 2019 00:00
Orbit: 963 x 1209 km, 28.3° (Epoch: 18 November)

Date Brightness Start Highest point End Pass type
(mag) Time Alt. Az. Time Alt. Az. Time Alt. Az.
20 Nov 10.1 05:25:00 10° S 05:25:51 10° S 05:26:42 10° SSE visible
22 Nov 9.9 05:29:05 10° SSW 05:31:38 12° S 05:34:07 10° SSE visible
23 Nov 9.9 04:35:47 10° SSW 04:38:12 12° S 04:40:33 10° SSE visible
24 Nov 9.9 03:42:50 10° S 03:44:45 11° S 03:46:39 10° SSE visible
24 Nov 9.9 05:34:38 10° SSW 05:37:23 13° S 05:40:07 10° SSE visible
25 Nov 9.8 04:40:51 10° SSW 04:43:57 13° S 04:46:59 10° SSE visible
26 Nov 9.7 03:48:39 12° SSW 03:50:30 13° S 03:53:38 10° SSE visible
26 Nov 9.9 05:41:02 10° SSW 05:43:08 11° SSW 05:45:11 10° S visible
27 Nov 9.9 02:58:19 12° SSE 02:58:19 12° SSE 03:00:02 10° SSE visible
27 Nov 9.8 04:46:42 10° SSW 04:49:42 13° S 04:52:37 10° SSE visible
28 Nov 9.7 03:54:51 13° SSW 03:56:14 14° S 03:59:39 10° SSE visible
29 Nov 9.9 03:04:29 13° SSE 03:04:29 13° SSE 03:06:24 10° SSE visible
29 Nov 9.8 04:53:33 10° SSW 04:55:24 11° SSW 04:57:13 10° S visible
